Asheville, NC

11:11 PM EST on January 18, 2018 (GMT -0500)
Asheville Regional

Weather History for KAVL - August, 2006

Change the Weather History Date:

Sunday, August 13, 2006

  Actual Average Record
Temperature  
Mean Temperature 70 °F 73 °F  
Max Temperature 79 °F 83 °F 94 °F (1925)
Min Temperature 60 °F 63 °F 49 °F (1890)
Degree Days  
Heating Degree Days 0 0  
Month to date heating degree days 0 0  
Since 1 June heating degree days 14  
Since 1 July heating degree days 0 0  
Cooling Degree Days 5 8  
Month to date cooling degree days 150 115  
Year to date cooling degree days 640 625  
Since 1 June cooling degree days 567  
Growing Degree Days 18 (Base 50)    
Moisture  
Dew Point 60 °F    
Average Humidity 78    
Maximum Humidity 96    
Minimum Humidity 60    
Precipitation  
Precipitation 0.00 in 0.14 in 3.62 in (1940)
Month to date precipitation 4.42 1.85  
Year to date precipitation 25.70 29.06  
Snow  
Snow 0.00 in 0.00 in 0.00 in ()
Month to date snowfall 0.0 0.0  
Since 1 June snowfall 0.0  
Since 1 July snowfall 0.0 0.0  
Snow Depth -    
Sea Level Pressure  
Sea Level Pressure 30.12 in    
Wind  
Wind Speed 4 mph (SSE)    
Max Wind Speed 14 mph    
Max Gust Speed 17 mph    
Visibility 9 miles    
Events      
T = Trace of Precipitation, MM = Missing Value Source: NWS Daily Summary

Daily Weather History Graph

Daily Weather History Graph

Search for Another Location

Airport or City:

Trip Planner

Search our weather history database for the weather conditions in past years. The results will help you decide how hot, cold, wet, or windy it might be!

Date:

Astronomy

Aug. 13, 2006 Rise Set
Actual Time 6:47 AM EDT 8:21 PM EDT
Civil Twilight 6:20 AM EDT 8:48 PM EDT
Nautical Twilight 5:48 AM EDT 9:21 PM EDT
Astronomical Twilight 5:13 AM EDT 9:55 PM EDT
Moon 10:58 PM EDT (8/13) 11:35 AM EDT (8/13)
Length of Visible Light 14h 27m
Length of Day
13h 33m
Waning Gibbous, 76% of the Moon is Illuminated
Aug 13
Waning Gibbous
Aug 15
Last Quarter
Aug 23
New
Aug 31
First Quarter
Sep 7
Full

Hourly Weather History & Observations

Time (EDT) Temp. Dew Point Humidity Pressure Visibility Wind Dir Wind Speed Gust Speed Precip Events Conditions
12:54 AM 63.0 °F 59.0 °F 87% 30.11 in 10.0 mi Calm Calm - N/A   Overcast
1:54 AM 62.1 °F 59.0 °F 90% 30.09 in 10.0 mi Calm Calm - N/A   Overcast
2:54 AM 62.1 °F 57.9 °F 86% 30.10 in 10.0 mi SSE 3.5 mph - N/A   Overcast
3:54 AM 62.1 °F 59.0 °F 90% 30.10 in 9.0 mi Calm Calm - N/A   Overcast
4:54 AM 62.1 °F 59.0 °F 90% 30.10 in 9.0 mi Calm Calm - N/A   Overcast
5:54 AM 60.1 °F 57.9 °F 93% 30.11 in 9.0 mi Calm Calm - N/A   Clear
6:05 AM 60.8 °F 57.2 °F 88% 30.15 in 8.0 mi Calm Calm - N/A   Mostly Cloudy
6:38 AM 60.8 °F 59.0 °F 94% 30.16 in 7.0 mi Calm Calm - N/A   Overcast
6:54 AM 61.0 °F 59.0 °F 93% 30.13 in 5.0 mi Calm Calm - N/A   Overcast
7:12 AM 60.8 °F 59.0 °F 94% 30.18 in 6.0 mi Calm Calm - N/A   Overcast
7:54 AM 61.0 °F 57.9 °F 90% 30.14 in 8.0 mi SSW 3.5 mph - N/A   Overcast
8:16 AM 62.6 °F 57.2 °F 82% 30.18 in 9.0 mi SSW 3.5 mph - N/A   Overcast
8:54 AM 63.0 °F 57.9 °F 84% 30.14 in 10.0 mi Calm Calm - N/A   Overcast
9:54 AM 66.0 °F 59.0 °F 78% 30.14 in 10.0 mi Calm Calm - N/A   Overcast
10:54 AM 70.0 °F 60.1 °F 71% 30.14 in 10.0 mi Variable 4.6 mph - N/A   Overcast
11:54 AM 72.0 °F 59.0 °F 64% 30.13 in 10.0 mi SSE 5.8 mph - N/A   Clear
12:54 PM 73.9 °F 60.1 °F 62% 30.12 in 10.0 mi South 9.2 mph - N/A   Clear
1:54 PM 77.0 °F 62.1 °F 60% 30.11 in 10.0 mi South 8.1 mph - N/A   Partly Cloudy
2:54 PM 77.0 °F 62.1 °F 60% 30.10 in 10.0 mi Variable 3.5 mph - N/A   Partly Cloudy
3:54 PM 77.0 °F 63.0 °F 62% 30.09 in 10.0 mi ESE 9.2 mph - N/A   Partly Cloudy
4:54 PM 77.0 °F 63.0 °F 62% 30.08 in 10.0 mi SE 8.1 mph - N/A   Partly Cloudy
5:54 PM 75.0 °F 63.0 °F 66% 30.09 in 10.0 mi SSE 9.2 mph - N/A   Partly Cloudy
6:54 PM 73.9 °F 63.0 °F 68% 30.07 in 10.0 mi SSE 8.1 mph - N/A   Overcast
7:54 PM 72.0 °F 63.0 °F 73% 30.09 in 10.0 mi SSE 6.9 mph - N/A   Overcast
8:54 PM 71.1 °F 63.0 °F 75% 30.09 in 10.0 mi SSE 5.8 mph - N/A   Overcast
9:54 PM 69.1 °F 63.0 °F 81% 30.10 in 10.0 mi SSE 4.6 mph - N/A   Mostly Cloudy
10:54 PM 69.1 °F 64.0 °F 84% 30.11 in 9.0 mi SSW 3.5 mph - N/A   Mostly Cloudy
11:54 PM 68.0 °F 64.0 °F 87% 30.12 in 8.0 mi SE 3.5 mph - N/A   Overcast